Location: Casilda
(33.0440°S, 61.1680°W)
Time: 08:54:26
(UTC-03:00)

ISS - Pass Details

Date: 15 October 2021
Orbit: 417 x 423 km, 51.6° (Epoch: 18 October)

Event Time Altitude Azimuth Distance (km) Brightness Sun altitude
Rises 20:28:22 0° 314° (NW) 2,366 0.4 -15.0°
Reaches altitude 10° 20:30:27 10° 313° (NW) 1,509 -0.6 -15.4°
Maximum altitude 20:33:51 83° 224° (SW) 435 -3.7 -16.1°
Enters shadow 20:36:46 14° 136° (SE) 1,321 -1.5 -16.7°
